Time,TemperatureF,DewpointF,PressureIn,WindDirection,WindDirectionDegrees,WindSpeedMPH,WindSpeedGustMPH,Humidity,HourlyPrecipIn,Conditions,Clouds,dailyrainin,SoftwareType,DateUTC
2013-01-15 00:02:00,24.5,1.2,27.54,ESE,113,0.0,0.7,36,0.00,,,0.00,WUHU216HW,2013-01-15 07:02:00,
2013-01-15 00:07:00,24.5,1.2,27.53,ESE,113,0.0,0.4,36,0.00,,,0.00,WUHU216HW,2013-01-15 07:07:00,
2013-01-15 00:12:00,24.3,1.6,27.53,ESE,113,0.0,0.4,37,0.00,,,0.00,WUHU216HW,2013-01-15 07:12:00,
2013-01-15 00:17:00,24.1,1.4,27.53,East,90,0.0,0.4,37,0.00,,,0.00,WUHU216HW,2013-01-15 07:17:00,
2013-01-15 00:22:00,24.1,1.4,27.54,ESE,113,0.0,0.4,37,0.00,,,0.00,WUHU216HW,2013-01-15 07:22:00,
2013-01-15 00:27:00,23.9,1.4,27.53,East,90,0.0,0.4,37,0.00,,,0.00,WUHU216HW,2013-01-15 07:27:00,
2013-01-15 00:32:00,23.9,1.4,27.53,East,90,0.0,0.4,37,0.00,,,0.00,WUHU216HW,2013-01-15 07:32:00,
2013-01-15 00:37:00,23.9,1.4,27.53,ESE,113,0.4,0.4,37,0.00,,,0.00,WUHU216HW,2013-01-15 07:37:00,
2013-01-15 00:42:00,23.9,1.9,27.53,ESE,113,0.0,0.4,38,0.00,,,0.00,WUHU216HW,2013-01-15 07:42:00,
2013-01-15 00:47:00,23.9,1.4,27.53,ESE,113,0.0,0.4,37,0.00,,,0.00,WUHU216HW,2013-01-15 07:47:00,
2013-01-15 00:52:00,23.9,1.4,27.53,ESE,113,0.2,0.2,37,0.00,,,0.00,WUHU216HW,2013-01-15 07:52:00,
2013-01-15 00:57:00,23.9,1.4,27.53,ESE,113,0.0,0.7,37,0.00,,,0.00,WUHU216HW,2013-01-15 07:57:00,
2013-01-15 01:02:00,24.1,2.1,27.53,SE,135,0.0,0.7,38,0.00,,,0.00,WUHU216HW,2013-01-15 08:02:00,
2013-01-15 01:07:00,24.1,2.7,27.53,ESE,113,0.2,0.4,39,0.00,,,0.00,WUHU216HW,2013-01-15 08:07:00,
2013-01-15 01:12:00,24.1,2.1,27.53,NE,45,0.4,1.1,38,0.00,,,0.00,WUHU216HW,2013-01-15 08:12:00,
2013-01-15 01:17:00,24.1,2.7,27.53,ESE,113,0.2,1.1,39,0.00,,,0.00,WUHU216HW,2013-01-15 08:17:00,
2013-01-15 01:22:00,23.9,2.5,27.54,SE,135,0.2,1.1,39,0.00,,,0.00,WUHU216HW,2013-01-15 08:22:00,
2013-01-15 01:27:00,23.8,3.0,27.54,SSE,158,0.2,1.1,40,0.00,,,0.00,WUHU216HW,2013-01-15 08:27:00,
2013-01-15 01:32:00,23.6,2.8,27.54,ESE,113,0.4,0.9,40,0.00,,,0.00,WUHU216HW,2013-01-15 08:32:00,
2013-01-15 01:37:00,23.4,3.2,27.54,SE,135,0.0,0.9,41,0.00,,,0.00,WUHU216HW,2013-01-15 08:37:00,
2013-01-15 01:42:00,23.4,3.2,27.54,ESE,113,0.2,0.4,41,0.00,,,0.00,WUHU216HW,2013-01-15 08:42:00,
2013-01-15 01:47:00,23.4,3.2,27.54,SE,135,0.0,0.4,41,0.00,,,0.00,WUHU216HW,2013-01-15 08:47:00,
2013-01-15 01:52:00,23.4,3.2,27.54,ESE,113,0.0,0.4,41,0.00,,,0.00,WUHU216HW,2013-01-15 08:52:00,
2013-01-15 01:57:00,23.4,3.2,27.54,ESE,113,0.0,0.4,41,0.00,,,0.00,WUHU216HW,2013-01-15 08:57:00,
2013-01-15 02:02:00,23.4,2.7,27.54,ESE,113,0.4,0.4,40,0.00,,,0.00,WUHU216HW,2013-01-15 09:02:00,
2013-01-15 02:07:00,23.4,2.7,27.55,ESE,113,0.0,0.4,40,0.00,,,0.00,WUHU216HW,2013-01-15 09:07:00,
2013-01-15 02:12:00,23.4,2.7,27.55,SE,135,0.0,0.4,40,0.00,,,0.00,WUHU216HW,2013-01-15 09:12:00,
2013-01-15 02:17:00,23.2,2.5,27.55,ESE,113,0.0,0.2,40,0.00,,,0.00,WUHU216HW,2013-01-15 09:17:00,
2013-01-15 02:22:00,23.2,3.0,27.56,ENE,68,0.2,1.1,41,0.00,,,0.00,WUHU216HW,2013-01-15 09:22:00,
2013-01-15 02:27:00,23.0,2.8,27.56,East,90,0.0,1.1,41,0.00,,,0.00,WUHU216HW,2013-01-15 09:27:00,
2013-01-15 02:32:00,22.7,3.0,27.56,ESE,113,0.0,0.4,42,0.00,,,0.00,WUHU216HW,2013-01-15 09:32:00,
2013-01-15 02:37:00,22.7,3.0,27.56,ENE,68,0.7,0.9,42,0.00,,,0.00,WUHU216HW,2013-01-15 09:37:00,
2013-01-15 02:42:00,22.7,3.0,27.56,ESE,113,0.0,0.9,42,0.00,,,0.00,WUHU216HW,2013-01-15 09:42:00,
2013-01-15 02:47:00,22.7,3.4,27.56,ENE,68,0.4,1.1,43,0.00,,,0.00,WUHU216HW,2013-01-15 09:47:00,
2013-01-15 02:52:00,22.7,3.4,27.56,ENE,68,0.7,1.1,43,0.00,,,0.00,WUHU216HW,2013-01-15 09:52:00,
2013-01-15 02:57:00,22.7,3.4,27.56,NE,45,1.1,1.6,43,0.00,,,0.00,WUHU216HW,2013-01-15 09:57:00,
2013-01-15 03:02:00,22.7,4.0,27.56,East,90,0.4,1.6,44,0.00,,,0.00,WUHU216HW,2013-01-15 10:02:00,
2013-01-15 03:07:00,22.5,3.8,27.56,NNE,23,1.8,1.8,44,0.00,,,0.00,WUHU216HW,2013-01-15 10:07:00,
2013-01-15 03:12:00,22.3,3.6,27.57,East,90,0.7,1.8,44,0.00,,,0.00,WUHU216HW,2013-01-15 10:12:00,
2013-01-15 03:17:00,22.3,3.6,27.57,ESE,113,0.4,1.8,44,0.00,,,0.00,WUHU216HW,2013-01-15 10:17:00,
2013-01-15 03:22:00,22.3,3.6,27.57,SE,135,0.4,1.3,44,0.00,,,0.00,WUHU216HW,2013-01-15 10:22:00,
2013-01-15 03:27:00,22.3,3.6,27.57,ESE,113,0.0,0.7,44,0.00,,,0.00,WUHU216HW,2013-01-15 10:27:00,
2013-01-15 03:32:00,22.1,3.4,27.58,ENE,68,0.2,0.7,44,0.00,,,0.00,WUHU216HW,2013-01-15 10:32:00,
2013-01-15 03:37:00,22.0,3.2,27.57,ENE,68,0.4,0.4,44,0.00,,,0.00,WUHU216HW,2013-01-15 10:37:00,
2013-01-15 03:42:00,22.0,3.2,27.58,ESE,113,0.2,0.4,44,0.00,,,0.00,WUHU216HW,2013-01-15 10:42:00,
2013-01-15 03:47:00,22.0,3.2,27.58,ENE,68,0.4,0.4,44,0.00,,,0.00,WUHU216HW,2013-01-15 10:47:00,
2013-01-15 03:52:00,21.8,3.1,27.58,ESE,113,0.0,0.4,44,0.00,,,0.00,WUHU216HW,2013-01-15 10:52:00,
2013-01-15 03:57:00,21.8,3.1,27.57,ESE,113,0.0,0.4,44,0.00,,,0.00,WUHU216HW,2013-01-15 10:57:00,
2013-01-15 04:02:00,21.8,3.1,27.58,ESE,113,0.0,0.4,44,0.00,,,0.00,WUHU216HW,2013-01-15 11:02:00,
2013-01-15 04:07:00,21.6,3.0,27.58,ESE,113,0.0,0.0,44,0.00,,,0.00,WUHU216HW,2013-01-15 11:07:00,
2013-01-15 04:12:00,21.8,3.6,27.57,ESE,113,0.2,0.4,45,0.00,,,0.00,WUHU216HW,2013-01-15 11:12:00,
2013-01-15 04:17:00,21.6,3.4,27.57,ENE,68,0.4,1.1,45,0.00,,,0.00,WUHU216HW,2013-01-15 11:17:00,
2013-01-15 04:22:00,21.4,3.3,27.58,ENE,68,0.9,1.1,45,0.00,,,0.00,WUHU216HW,2013-01-15 11:22:00,
2013-01-15 04:27:00,21.2,3.1,27.57,ESE,113,0.2,1.1,45,0.00,,,0.00,WUHU216HW,2013-01-15 11:27:00,
2013-01-15 04:32:00,21.2,3.1,27.57,ESE,113,0.2,1.1,45,0.00,,,0.00,WUHU216HW,2013-01-15 11:32:00,
2013-01-15 04:37:00,21.2,3.1,27.57,East,90,0.0,0.9,45,0.00,,,0.00,WUHU216HW,2013-01-15 11:37:00,
2013-01-15 04:42:00,21.2,3.1,27.58,ENE,68,0.0,0.9,45,0.00,,,0.00,WUHU216HW,2013-01-15 11:42:00,
2013-01-15 04:47:00,21.2,3.5,27.58,East,90,0.4,0.4,46,0.00,,,0.00,WUHU216HW,2013-01-15 11:47:00,
2013-01-15 04:52:00,21.1,3.3,27.58,ESE,113,0.0,0.4,46,0.00,,,0.00,WUHU216HW,2013-01-15 11:52:00,
2013-01-15 04:57:00,21.1,3.3,27.58,SE,135,0.4,0.4,46,0.00,,,0.00,WUHU216HW,2013-01-15 11:57:00,
2013-01-15 05:02:00,21.1,3.3,27.58,ENE,68,0.4,1.1,46,0.00,,,0.00,WUHU216HW,2013-01-15 12:02:00,
2013-01-15 05:07:00,20.9,3.7,27.58,East,90,0.4,1.1,47,0.00,,,0.00,WUHU216HW,2013-01-15 12:07:00,
2013-01-15 05:12:00,20.9,3.3,27.58,East,90,0.4,1.1,46,0.00,,,0.00,WUHU216HW,2013-01-15 12:12:00,
2013-01-15 05:17:00,20.9,3.3,27.58,East,90,0.7,1.1,46,0.00,,,0.00,WUHU216HW,2013-01-15 12:17:00,
2013-01-15 05:22:00,20.9,3.7,27.59,ESE,113,0.0,1.1,47,0.00,,,0.00,WUHU216HW,2013-01-15 12:22:00,
2013-01-15 05:27:00,20.9,3.3,27.58,NNE,23,1.3,1.3,46,0.00,,,0.00,WUHU216HW,2013-01-15 12:27:00,
2013-01-15 05:32:00,20.9,3.3,27.58,ESE,113,0.0,1.6,46,0.00,,,0.00,WUHU216HW,2013-01-15 12:32:00,
2013-01-15 05:37:00,20.7,3.1,27.59,ESE,113,0.0,1.6,46,0.00,,,0.00,WUHU216HW,2013-01-15 12:37:00,
2013-01-15 05:42:00,20.7,3.1,27.58,ESE,113,0.4,0.4,46,0.00,,,0.00,WUHU216HW,2013-01-15 12:42:00,
2013-01-15 05:47:00,20.7,3.1,27.58,East,90,0.0,0.4,46,0.00,,,0.00,WUHU216HW,2013-01-15 12:47:00,
2013-01-15 05:52:00,20.7,3.1,27.59,East,90,0.7,1.1,46,0.00,,,0.00,WUHU216HW,2013-01-15 12:52:00,
2013-01-15 05:57:00,20.5,2.9,27.59,ENE,68,0.4,1.1,46,0.00,,,0.00,WUHU216HW,2013-01-15 12:57:00,
2013-01-15 06:02:00,20.5,2.9,27.59,East,90,0.4,1.1,46,0.00,,,0.00,WUHU216HW,2013-01-15 13:02:00,
2013-01-15 06:07:00,20.3,2.7,27.59,ENE,68,0.2,1.1,46,0.00,,,0.00,WUHU216HW,2013-01-15 13:07:00,
2013-01-15 06:12:00,20.2,3.1,27.59,ESE,113,0.4,0.7,47,0.00,,,0.00,WUHU216HW,2013-01-15 13:12:00,
2013-01-15 06:17:00,20.2,3.1,27.59,ENE,68,0.2,1.6,47,0.00,,,0.00,WUHU216HW,2013-01-15 13:17:00,
2013-01-15 06:22:00,20.0,2.9,27.60,ESE,113,0.2,1.6,47,0.00,,,0.00,WUHU216HW,2013-01-15 13:22:00,
2013-01-15 06:27:00,20.0,3.3,27.60,East,90,0.0,0.7,48,0.00,,,0.00,WUHU216HW,2013-01-15 13:27:00,
2013-01-15 06:32:00,20.0,2.9,27.61,ESE,113,0.4,1.8,47,0.00,,,0.00,WUHU216HW,2013-01-15 13:32:00,
2013-01-15 06:37:00,20.0,3.3,27.61,East,90,0.4,1.8,48,0.00,,,0.00,WUHU216HW,2013-01-15 13:37:00,
2013-01-15 06:42:00,20.0,3.3,27.61,ESE,113,0.4,1.1,48,0.00,,,0.00,WUHU216HW,2013-01-15 13:42:00,
2013-01-15 06:47:00,19.8,3.2,27.61,East,90,0.4,0.7,48,0.00,,,0.00,WUHU216HW,2013-01-15 13:47:00,
2013-01-15 06:52:00,20.0,3.3,27.61,East,90,0.0,0.7,48,0.00,,,0.00,WUHU216HW,2013-01-15 13:52:00,
2013-01-15 06:57:00,20.0,2.9,27.61,ESE,113,0.4,0.9,47,0.00,,,0.00,WUHU216HW,2013-01-15 13:57:00,
2013-01-15 07:02:00,20.0,2.9,27.61,East,90,0.0,0.9,47,0.00,,,0.00,WUHU216HW,2013-01-15 14:02:00,
2013-01-15 07:07:00,20.0,2.9,27.61,ENE,68,0.2,0.7,47,0.00,,,0.00,WUHU216HW,2013-01-15 14:07:00,
2013-01-15 07:12:00,19.8,3.2,27.61,East,90,0.0,1.1,48,0.00,,,0.00,WUHU216HW,2013-01-15 14:12:00,
2013-01-15 07:17:00,19.8,3.2,27.61,ENE,68,0.4,1.1,48,0.00,,,0.00,WUHU216HW,2013-01-15 14:17:00,
2013-01-15 07:22:00,19.6,3.0,27.62,East,90,0.2,1.1,48,0.00,,,0.00,WUHU216HW,2013-01-15 14:22:00,
2013-01-15 07:27:00,19.8,3.2,27.62,East,90,0.9,1.3,48,0.00,,,0.00,WUHU216HW,2013-01-15 14:27:00,
2013-01-15 07:32:00,19.8,3.2,27.62,East,90,0.9,1.3,48,0.00,,,0.00,WUHU216HW,2013-01-15 14:32:00,
2013-01-15 07:37:00,20.0,3.3,27.62,East,90,0.4,1.1,48,0.00,,,0.00,WUHU216HW,2013-01-15 14:37:00,
2013-01-15 07:42:00,20.2,3.5,27.62,ESE,113,0.2,1.1,48,0.00,,,0.00,WUHU216HW,2013-01-15 14:42:00,
2013-01-15 07:47:00,20.3,3.7,27.62,ESE,113,0.7,1.1,48,0.00,,,0.00,WUHU216HW,2013-01-15 14:47:00,
2013-01-15 07:52:00,20.5,3.8,27.62,ESE,113,0.4,1.6,48,0.00,,,0.00,WUHU216HW,2013-01-15 14:52:00,
2013-01-15 07:57:00,20.9,4.1,27.63,SE,135,0.2,1.8,48,0.00,,,0.00,WUHU216HW,2013-01-15 14:57:00,
2013-01-15 08:02:00,21.1,4.3,27.63,ENE,68,1.1,1.8,48,0.00,,,0.00,WUHU216HW,2013-01-15 15:02:00,
2013-01-15 08:07:00,21.2,4.0,27.63,SE,135,0.4,1.8,47,0.00,,,0.00,WUHU216HW,2013-01-15 15:07:00,
2013-01-15 08:12:00,21.2,4.5,27.63,East,90,0.2,1.8,48,0.00,,,0.00,WUHU216HW,2013-01-15 15:12:00,
2013-01-15 08:17:00,21.4,4.7,27.63,ESE,113,0.4,1.6,48,0.00,,,0.00,WUHU216HW,2013-01-15 15:17:00,
2013-01-15 08:22:00,22.0,4.7,27.63,ESE,113,0.4,1.6,47,0.00,,,0.00,WUHU216HW,2013-01-15 15:22:00,
2013-01-15 18:52:00,40.7,2.7,27.62,East,90,0.0,0.0,20,0.00,,,0.00,WUHU216HW,2013-01-16 01:52:00,
2013-01-15 18:57:00,40.3,2.4,27.62,East,90,0.4,0.4,20,0.00,,,0.00,WUHU216HW,2013-01-16 01:57:00,
2013-01-15 19:02:00,40.0,3.0,27.62,NW,315,0.0,0.4,21,0.00,,,0.00,WUHU216HW,2013-01-16 02:02:00,
2013-01-15 19:07:00,39.4,2.5,27.62,North,0,0.2,0.4,21,0.00,,,0.00,WUHU216HW,2013-01-16 02:07:00,
2013-01-15 19:12:00,39.1,3.1,27.62,NNW,338,0.2,1.8,22,0.00,,,0.00,WUHU216HW,2013-01-16 02:12:00,
2013-01-15 19:17:00,38.9,3.9,27.62,WSW,248,0.4,1.8,23,0.00,,,0.00,WUHU216HW,2013-01-16 02:17:00,
2013-01-15 19:22:00,38.5,3.5,27.62,WNW,293,0.2,1.1,23,0.00,,,0.00,WUHU216HW,2013-01-16 02:22:00,
2013-01-15 19:27:00,38.2,4.2,27.63,NW,315,0.7,1.1,24,0.00,,,0.00,WUHU216HW,2013-01-16 02:27:00,
2013-01-15 19:32:00,37.8,3.9,27.63,SSE,158,0.4,1.3,24,0.00,,,0.00,WUHU216HW,2013-01-16 02:32:00,
2013-01-15 19:37:00,37.6,3.7,27.63,NW,315,0.4,1.8,24,0.00,,,0.00,WUHU216HW,2013-01-16 02:37:00,
2013-01-15 19:42:00,37.3,3.4,27.63,NNW,338,0.0,1.8,24,0.00,,,0.00,WUHU216HW,2013-01-16 02:42:00,
2013-01-15 19:47:00,37.1,4.2,27.63,West,270,0.4,0.7,25,0.00,,,0.00,WUHU216HW,2013-01-16 02:47:00,
2013-01-15 19:52:00,36.7,2.9,27.64,WNW,293,0.0,0.9,24,0.00,,,0.00,WUHU216HW,2013-01-16 02:52:00,
2013-01-15 19:57:00,36.5,2.8,27.64,NW,315,0.4,0.9,24,0.00,,,0.00,WUHU216HW,2013-01-16 02:57:00,
2013-01-15 20:02:00,36.4,4.3,27.64,West,270,0.4,1.1,26,0.00,,,0.00,WUHU216HW,2013-01-16 03:02:00,
2013-01-15 20:07:00,36.2,4.2,27.64,WSW,248,0.0,1.1,26,0.00,,,0.00,WUHU216HW,2013-01-16 03:07:00,
2013-01-15 20:12:00,36.0,4.1,27.64,NW,315,0.2,1.1,26,0.00,,,0.00,WUHU216HW,2013-01-16 03:12:00,
2013-01-15 20:17:00,35.8,3.1,27.64,WNW,293,0.2,1.1,25,0.00,,,0.00,WUHU216HW,2013-01-16 03:17:00,
2013-01-15 20:22:00,35.6,3.8,27.64,WSW,248,1.1,1.6,26,0.00,,,0.00,WUHU216HW,2013-01-16 03:22:00,
2013-01-15 20:27:00,35.6,2.9,27.64,West,270,1.1,1.6,25,0.00,,,0.00,WUHU216HW,2013-01-16 03:27:00,
2013-01-15 20:32:00,35.6,2.9,27.64,West,270,0.4,1.3,25,0.00,,,0.00,WUHU216HW,2013-01-16 03:32:00,
2013-01-15 20:37:00,35.6,2.0,27.64,West,270,0.0,1.8,24,0.00,,,0.00,WUHU216HW,2013-01-16 03:37:00,
2013-01-15 20:42:00,35.6,2.0,27.64,WNW,293,0.4,1.8,24,0.00,,,0.00,WUHU216HW,2013-01-16 03:42:00,
2013-01-15 20:47:00,35.6,2.0,27.64,NW,315,0.4,1.6,24,0.00,,,0.00,WUHU216HW,2013-01-16 03:47:00,
2013-01-15 20:52:00,35.5,1.9,27.64,NNW,338,0.0,1.8,24,0.00,,,0.00,WUHU216HW,2013-01-16 03:52:00,
2013-01-15 20:57:00,35.3,1.7,27.64,SE,135,0.0,1.8,24,0.00,,,0.00,WUHU216HW,2013-01-16 03:57:00,
2013-01-15 21:02:00,34.9,2.3,27.64,SSE,158,0.0,0.9,25,0.00,,,0.00,WUHU216HW,2013-01-16 04:02:00,
2013-01-15 21:07:00,34.4,2.7,27.64,WSW,248,0.0,0.0,26,0.00,,,0.00,WUHU216HW,2013-01-16 04:07:00,
2013-01-15 21:12:00,34.2,2.5,27.64,SW,225,0.0,0.4,26,0.00,,,0.00,WUHU216HW,2013-01-16 04:12:00,
2013-01-15 21:17:00,34.0,2.3,27.65,SE,135,0.4,0.7,26,0.00,,,0.00,WUHU216HW,2013-01-16 04:17:00,
2013-01-15 21:22:00,33.8,2.3,27.65,East,90,0.0,0.7,26,0.00,,,0.00,WUHU216HW,2013-01-16 04:22:00,
2013-01-15 21:27:00,33.7,2.1,27.65,SE,135,0.0,0.7,26,0.00,,,0.00,WUHU216HW,2013-01-16 04:27:00,
2013-01-15 21:32:00,33.5,1.9,27.65,SW,225,0.0,0.7,26,0.00,,,0.00,WUHU216HW,2013-01-16 04:32:00,
2013-01-15 21:37:00,33.3,2.6,27.65,West,270,0.4,1.1,27,0.00,,,0.00,WUHU216HW,2013-01-16 04:37:00,
2013-01-15 21:42:00,33.1,3.3,27.64,NW,315,0.2,1.1,28,0.00,,,0.00,WUHU216HW,2013-01-16 04:42:00,
2013-01-15 21:47:00,33.3,2.6,27.64,NNW,338,0.4,1.6,27,0.00,,,0.00,WUHU216HW,2013-01-16 04:47:00,
2013-01-15 21:52:00,33.5,2.8,27.64,West,270,0.4,1.6,27,0.00,,,0.00,WUHU216HW,2013-01-16 04:52:00,
2013-01-15 21:57:00,33.7,2.1,27.64,NW,315,0.0,1.3,26,0.00,,,0.00,WUHU216HW,2013-01-16 04:57:00,
2013-01-15 22:00:00,33.7,2.1,27.64,NW,315,0.0,1.3,26,0.00,,,0.00,WUHU216HW,2013-01-16 05:00:00,
2013-01-15 22:01:00,33.7,2.1,27.64,NW,315,0.0,1.3,26,0.00,,,0.00,WUHU216HW,2013-01-16 05:01:00,
2013-01-15 22:03:00,33.5,1.9,27.64,WSW,248,0.0,1.3,26,0.00,,,0.00,WUHU216HW,2013-01-16 05:03:00,
2013-01-15 22:08:00,33.5,1.9,27.64,North,0,0.0,0.4,26,0.00,,,0.00,WUHU216HW,2013-01-16 05:08:00,
2013-01-15 22:13:00,33.1,1.6,27.64,NNE,23,0.0,0.2,26,0.00,,,0.00,WUHU216HW,2013-01-16 05:13:00,
2013-01-15 22:18:00,32.9,2.4,27.64,NNW,338,0.0,0.7,27,0.00,,,0.00,WUHU216HW,2013-01-16 05:18:00,
2013-01-15 22:23:00,32.8,3.1,27.64,West,270,0.2,0.7,28,0.00,,,0.00,WUHU216HW,2013-01-16 05:23:00,
2013-01-15 22:28:00,32.8,2.2,27.65,WNW,293,0.4,0.7,27,0.00,,,0.00,WUHU216HW,2013-01-16 05:28:00,
2013-01-15 22:33:00,32.8,2.2,27.65,ENE,68,1.1,1.1,27,0.00,,,0.00,WUHU216HW,2013-01-16 05:33:00,
2013-01-15 22:38:00,32.6,2.9,27.65,East,90,0.4,2.5,28,0.00,,,0.00,WUHU216HW,2013-01-16 05:38:00,
2013-01-15 22:43:00,32.4,2.7,27.65,ESE,113,0.2,2.5,28,0.00,,,0.00,WUHU216HW,2013-01-16 05:43:00,
2013-01-15 22:48:00,32.2,2.6,27.66,ESE,113,0.0,1.1,28,0.00,,,0.00,WUHU216HW,2013-01-16 05:48:00,
2013-01-15 22:53:00,31.9,2.3,27.66,ESE,113,0.0,0.4,28,0.00,,,0.00,WUHU216HW,2013-01-16 05:53:00,
2013-01-15 22:58:00,31.3,1.8,27.66,ESE,113,0.0,0.4,28,0.00,,,0.00,WUHU216HW,2013-01-16 05:58:00,
2013-01-15 23:03:00,31.0,3.8,27.66,ENE,68,0.0,0.0,31,0.00,,,0.00,WUHU216HW,2013-01-16 06:03:00,
2013-01-15 23:08:00,30.8,3.0,27.66,ENE,68,0.0,0.4,30,0.00,,,0.00,WUHU216HW,2013-01-16 06:08:00,
2013-01-15 23:13:00,30.6,2.9,27.66,ENE,68,0.0,0.4,30,0.00,,,0.00,WUHU216HW,2013-01-16 06:13:00,
2013-01-15 23:18:00,30.4,3.3,27.66,East,90,0.0,1.1,31,0.00,,,0.00,WUHU216HW,2013-01-16 06:18:00,
2013-01-15 23:23:00,30.2,3.2,27.66,ENE,68,0.0,1.1,31,0.00,,,0.00,WUHU216HW,2013-01-16 06:23:00,
2013-01-15 23:28:00,30.2,3.2,27.65,East,90,0.0,1.1,31,0.00,,,0.00,WUHU216HW,2013-01-16 06:28:00,
2013-01-15 23:33:00,30.1,3.0,27.65,ESE,113,0.0,0.4,31,0.00,,,0.00,WUHU216HW,2013-01-16 06:33:00,
2013-01-15 23:38:00,30.2,3.8,27.65,ESE,113,0.0,0.2,32,0.00,,,0.00,WUHU216HW,2013-01-16 06:38:00,
2013-01-15 23:43:00,30.1,3.6,27.65,ESE,113,0.0,0.0,32,0.00,,,0.00,WUHU216HW,2013-01-16 06:43:00,
2013-01-15 23:48:00,29.9,3.4,27.66,ENE,68,0.7,0.7,32,0.00,,,0.00,WUHU216HW,2013-01-16 06:48:00,
2013-01-15 23:53:00,29.5,3.2,27.66,SW,225,0.0,0.7,32,0.00,,,0.00,WUHU216HW,2013-01-16 06:53:00,
2013-01-15 23:58:00,29.3,3.6,27.66,SW,225,0.0,0.7,33,0.00,,,0.00,WUHU216HW,2013-01-16 06:58:00,